Regional Weather Roundup
Issued by NWS Sterling, VA

Home | Current Version | Previous Version | Graphics & Text | Print | Product List | Glossary On
Versions: 1 2 3 4 5 6 7 8 9 10 11 12 13 14 15 16 17 18 19 20 21 22 23 24 25 26 27 28 29 30 31 32 33 34 35 36 37 38 39 40 41 42 43 44 45 46 47 48 49 50
000
ASUS41 KLWX 230411
RWRLWX

REGIONAL WEATHER ROUNDUP
NATIONAL WEATHER SERVICE BALTIMORE MD/WASHINGTON DC
1200 AM EDT WED AUG 23 2017

Note: "FAIR" indicates few or no clouds below 12,000 feet
with no significant weather and/or obstructions to visibility.
 TC=TEMPERATURE CELSIUS

 * =Non NWS site. Station does not report precipitation (e.g. rain,
    snow, etc.), thunder, or fog.

DCZ001-MDZ009-015-VAZ040>042-051-053>054-230500-
WASHINGTON METRO

CITY           SKY/WX    TMP DP  RH WIND       PRES   REMARKS
WASHINGTON NAT MOCLDY    83  73  72 S12       29.81F
DULLES         MOCLDY    80  72  76 W7        29.82S
ANDREWS AFB    PTCLDY    81  71  72 SW14G21   29.81F
FT BELVOIR     CLOUDY    83  71  68 S5        29.81F
QUANTICO       CLEAR     83  73  72 SW7       29.83S
COLLEGE PARK*  MOCLDY    82  71  68 S3        29.81S
LEESBURG*      CLOUDY    81  72  74 NW17G25   29.86R
MANASSAS*      CLOUDY    79  72  79 S6        29.82F
GAITHERSBURG*  CLOUDY    80  72  76 NW5       29.85S

$$

MDZ006>007-011-014-230500-
BALTIMORE METRO

CITY           SKY/WX    TMP DP  RH WIND       PRES   REMARKS
BWI AIRPORT    CLOUDY    82  72  71 SW5       29.80F
MD SCIENCE CTR   N/A     86  72  62 MISG      29.81S HX  92
MARTIN STATE   MOCLDY    82  73  74 S3        29.82S
ANNAPOLIS      CLEAR     85  76  74 VRB7      29.80F HX  94
FORT MEADE*    MOCLDY    77  72  83 SW7       29.84R

$$

MDZ012-015-019>023-230500-
MARYLAND EASTERN SHORE

CITY           SKY/WX    TMP DP  RH WIND       PRES   REMARKS
OCEAN CITY     CLEAR     81  77  88 SW12      29.87R
SALISBURY      CLEAR     77  77 100 S6        29.86R
BAY BRIDGE AP* CLEAR     82  75  78 SW13G20   29.81S
CAMBRIDGE*     CLEAR     82  75  78 S8        29.84S
EASTON*        CLEAR     83  74  74 SW14      29.86S HX  90

$$

MDZ017>025-230500-
SOUTHERN MARYLAND

CITY           SKY/WX    TMP DP  RH WIND       PRES   REMARKS
PATUXENT RIVER CLEAR     81  75  82 SW13      29.84S
ST INIGOES     CLEAR     82  76  81 S12       29.84S
LEONARDTOWN*   CLEAR     81  72  74 S8        29.86S

$$

MDZ003>005-230500-
NORTH CENTRAL MARYLAND

CITY           SKY/WX    TMP DP  RH WIND       PRES   REMARKS
FREDERICK*     MOCLDY    79  68  69 W9        29.87R
HAGERSTOWN APT LGT RAIN  75  71  87 W6        29.85F
WESTMINSTER*   MOCLDY    75  72  88 SW5       29.84S

$$

MDZ501>502-230500-
WESTERN MARYLAND

CITY           SKY/WX    TMP DP  RH WIND       PRES   REMARKS
OAKLAND*       CLOUDY    63  63 100 W8G17     29.94F
CUMBERLAND*    CLOUDY    72  72 100 SE8       29.90F

$$

VAZ025>031-230500-
SHENANDOAH VALLEY

CITY           SKY/WX    TMP DP  RH WIND       PRES   REMARKS
WINCHESTER*    RAIN      72  68  88 NW12      29.86F
FRONT ROYAL*   CLOUDY    77  68  73 N6        29.86R
LURAY*         MOCLDY    79  70  73 SW5       29.86S
NEW MARKET*    MOCLDY    74  68  81 CALM      29.86S
STAUNTON*      MOCLDY    76  67  74 SW3       29.91S
WAYNESBORO*    PTCLDY    80  68  66 SW7       29.91F

$$

WVZ021-048>050-054>055-230500-
EASTERN WEST VIRGINIA PANHANDLE

CITY           SKY/WX    TMP DP  RH WIND       PRES   REMARKS
MARTINSBURG    RAIN      73  69  87 W13       29.85F FOG
PETERSBURG*    CLOUDY    73  72  97 CALM      29.89F

$$

VAZ036>039-050-230500-
CENTRAL FOOTHILLS

CITY           SKY/WX    TMP DP  RH WIND       PRES   REMARKS
CHARLOTTESVILL PTCLDY    80  70  71 SW6       29.85F
CULPEPER*      PTCLDY    81  71  72 SW5       29.84S
ORANGE*        PTCLDY    79  68  69 S5        29.84F
GORDONSVILLE*  CLOUDY    78  70  76 SW6       29.84F
WARRENTON*     PTCLDY    81  68  63 S5        29.83R

$$

VAZ055>057-230500-
NORTH AND CENTRAL PIEDMONT

CITY           SKY/WX    TMP DP  RH WIND       PRES   REMARKS
FREDERICKSBRG* CLEAR     82  73  76 S10       29.83S
STAFFORD*      CLEAR     80  73  78 S5        29.87S

$$

NCZ024-NYZ072-PAZ021-071-VAZ022-071-230500-
OTHER REGIONAL OBSERVATIONS

CITY           SKY/WX    TMP DP  RH WIND       PRES   REMARKS
NEW YORK CITY  RAIN      74  71  91 W12G22    29.84R FOG
PHILADELPHIA   TSTM      74  72  93 W36G47    29.86S VSB 1/2
PITTSBURGH     LGT RAIN  70  66  87 NW9       29.88S
ROANOKE        MOCLDY    79  66  64 CALM      29.94F
RICHMOND       PTCLDY    80  74  81 S13       29.87F
RALEIGH        PTCLDY    81  72  74 SW12      29.95F

$$

ANZ530>537-230500-
MARINE OBSERVATIONS

STATION/POSITION TIME  TEMP    WIND        PRES
                       AIR SEA DIR/SP/G
                 (UTC) (F)     (DEG/KT/KT) (MB)
THOMAS PT LIGHT  0400   83 81  210/ 20/ 23   N/A
BALT KEY BRIDGE  0336   84     240/  5/  6 1009.2S
COVE POINT       0336   83     220/ 14/ 21 1011.0F
LEWISETTA        0336   81 84  230/ 11/ 13 1010.8F
SOLOMONS ISLAND  0348          210/ 14/ 19   N/A
PINEY POINT      0348          230/ 15/ 18   N/A

$$




USA.gov is the U.S. government's official web portal to all federal, state and local government web resources and services.